Lapse_Rate
6.3 6.2 6.2 6.4 6.4 6.9 6.9 6.5 6.6 6.3 6.1 6.3 6.1 5.8 5.8 6.1 5.9 5.9 5.9 5.7 5.9 5.8 5.9 5.9 5.8 5.9 5.7 5.7 5.8 5.7 5.6 5.5 5.4 5.5 5.4 5.4 5.6 5.7 5.7 5.9 5.9 5.8 6.0 6.2 6.3 6.3 6.1 6.2 6.2
6.1 6.2 6.2 6.3 6.5 7.2 6.7 6.1 6.3 6.1 6.2 6.1 6.0 5.9 5.6 5.8 6.1 6.0 6.0 5.9 5.9 5.6 5.8 5.7 5.7 5.6 5.6 5.6 5.6 5.6 5.5 5.3 5.3 5.3 5.5 5.5 5.7 5.6 5.7 5.9 5.8 5.9 6.2 6.3 6.3 6.2 6.2 6.3 6.4
5.9 5.9 5.9 5.8 6.5 6.8 6.7 6.1 5.9 6.4 6.1 5.6 5.8 5.8 5.8 6.0 6.0 6.0 6.1 5.8 6.0 6.0 5.8 5.8 5.8 5.7 5.5 5.5 5.5 5.4 5.2 5.2 5.3 5.3 5.5 5.6 5.6 5.6 5.7 5.7 5.9 6.0 6.2 6.1 6.2 6.2 6.3 6.4 6.2
5.7 5.7 5.8 5.9 6.0 5.8 6.1 5.9 5.8 6.2 6.1 5.9 5.9 5.4 5.7 5.7 5.9 6.1 6.0 6.0 5.8 5.5 5.6 5.7 5.8 5.7 5.5 5.4 5.4 5.4 5.4 5.4 5.4 5.4 5.6 5.7 5.7 5.7 5.7 5.8 5.9 6.2 6.1 6.1 6.1 6.2 6.1 6.2 5.9
5.9 5.8 5.5 5.8 5.6 5.3 5.6 6.1 5.8 5.7 5.7 6.0 5.9 5.5 5.8 5.9 5.9 5.8 5.8 5.8 5.7 5.6 5.5 5.5 5.6 5.7 5.5 5.5 5.6 5.6 5.4 5.4 5.4 5.5 5.6 5.7 5.8 5.7 5.8 5.9 6.1 6.2 6.0 5.9 6.1 6.1 6.0 6.0 5.9
5.8 5.7 5.7 5.7 5.6 5.2 5.1 5.6 5.9 5.6 6.0 6.0 6.1 5.4 5.5 5.7 5.7 5.6 5.3 5.4 5.4 5.6 5.6 5.4 5.6 5.5 5.5 5.5 5.4 5.4 5.4 5.6 5.3 5.5 5.2 5.6 5.8 5.9 5.9 6.0 6.2 6.1 6.1 6.0 6.0 5.9 5.9 5.8 5.8
5.3 4.9 4.8 5.5 5.5 5.8 5.7 5.8 5.5 5.6 5.6 5.6 5.9 5.1 5.6 5.6 5.4 5.1 5.0 5.2 5.3 5.2 5.4 5.5 5.5 5.4 5.5 5.5 5.4 5.4 5.8 5.5 5.3 5.3 5.2 5.5 5.6 6.0 6.0 6.2 6.1 6.0 6.0 6.0 6.1 6.1 5.9 5.8 5.6
5.7 5.0 5.1 5.5 5.9 5.8 5.8 5.7 6.0 5.5 6.0 5.8 5.9 5.4 5.3 5.6 5.5 5.2 5.0 5.2 5.4 5.5 5.4 5.5 5.3 5.5 5.5 5.3 5.3 5.4 5.4 5.4 5.1 5.3 5.4 5.7 5.9 6.0 6.1 6.2 6.1 6.3 6.1 6.2 6.2 6.1 6.1 5.9 5.9
6.0 5.5 5.9 5.8 5.9 5.8 6.0 5.6 5.9 6.1 6.2 5.7 5.8 5.5 5.5 5.4 5.3 5.3 5.1 5.3 5.4 5.6 5.5 5.5 5.3 5.5 5.5 5.4 5.5 5.4 5.2 5.3 5.0 5.4 5.5 5.6 5.8 6.2 6.2 6.3 6.2 6.3 6.2 6.4 6.4 6.2 6.1 6.0 6.0
6.0 6.3 5.8 5.8 5.8 5.6 5.7 5.5 5.9 5.9 5.9 5.6 5.9 5.8 5.7 5.4 5.3 5.2 5.1 4.9 5.2 5.3 5.3 5.5 5.3 5.5 5.4 5.2 5.4 5.4 5.2 5.2 5.3 5.5 5.5 5.5 5.8 6.2 6.1 6.2 6.2 6.3 6.3 6.4 6.4 6.4 6.3 6.4 5.9
6.4 6.0 5.9 5.7 5.9 5.8 5.6 5.5 5.8 5.7 5.6 5.4 5.7 5.6 5.7 5.5 5.4 5.2 4.9 5.0 5.0 5.2 5.2 5.4 5.3 5.3 5.3 5.2 5.3 5.4 5.4 5.3 5.5 5.5 5.6 5.7 6.0 6.1 6.0 6.2 6.2 6.2 6.3 6.4 6.5 6.5 6.3 6.3 6.1
6.1 6.1 6.3 6.2 6.1 5.8 5.5 5.4 5.5 5.6 5.5 5.2 5.6 5.5 5.4 5.5 5.3 5.0 4.6 5.3 5.3 5.3 5.3 5.3 5.3 5.1 5.2 5.2 5.2 5.3 5.4 5.4 5.5 5.5 5.7 5.8 5.9 6.1 6.0 6.2 6.2 6.3 6.4 6.5 6.6 6.5 6.4 6.5 6.3
6.2 6.3 6.4 6.3 6.2 6.0 5.7 5.5 5.4 5.8 5.8 5.7 5.5 5.6 5.5 5.4 5.3 5.2 5.2 5.3 5.4 5.5 5.6 5.5 5.2 5.0 5.1 5.2 5.2 5.2 5.4 5.1 5.4 5.5 5.7 5.9 5.9 6.1 5.9 6.2 6.3 6.3 6.4 6.6 6.7 6.5 6.4 6.4 6.5
6.5 6.4 6.4 6.5 6.4 6.3 6.0 5.7 5.5 5.5 5.8 6.0 5.5 5.4 5.4 5.4 5.1 5.3 5.2 5.2 5.5 5.5 5.5 5.4 5.3 5.2 5.1 5.0 5.2 5.3 5.5 5.3 5.4 5.8 5.9 5.9 6.0 6.1 5.9 6.1 6.3 6.3 6.4 6.7 6.7 6.5 6.4 6.5 6.2
6.5 5.9 6.5 6.4 6.4 6.1 6.0 5.7 5.8 5.5 5.6 5.7 5.4 5.1 5.0 5.4 5.1 5.1 5.1 5.2 5.4 5.7 5.7 5.5 5.3 5.2 5.1 4.9 5.0 5.1 5.2 5.2 5.2 5.8 5.9 5.9 5.8 5.9 5.9 6.0 6.1 6.2 6.5 6.6 6.6 6.6 6.5 6.5 6.3
6.1 6.4 6.9 6.5 6.5 6.0 5.9 6.4 5.9 5.8 5.7 5.7 5.4 5.1 5.2 5.1 5.0 5.2 5.2 5.1 5.3 5.3 5.4 5.5 5.4 5.2 4.7 4.6 4.6 4.9 5.3 5.4 5.3 5.5 5.5 5.7 5.8 5.8 5.8 5.9 6.0 6.1 6.4 6.5 6.5 6.6 6.4 6.5 6.6
6.8 7.5 7.2 7.0 6.7 6.1 5.9 6.3 5.7 5.8 5.8 5.5 5.4 5.6 5.2 4.9 4.9 5.1 5.2 5.2 5.3 5.4 5.4 5.6 5.3 5.0 4.7 4.6 4.7 4.9 4.9 5.0 5.1 5.3 5.4 5.6 5.7 5.8 5.9 5.9 6.1 6.1 6.3 6.4 6.3 6.4 6.4 6.3 6.5
7.5 7.4 7.5 7.6 6.8 6.9 6.3 6.4 6.2 6.4 6.2 5.7 5.7 5.4 5.2 4.9 4.8 4.9 5.2 5.3 5.3 5.5 5.4 5.5 5.4 5.2 5.0 4.9 4.9 4.9 4.9 5.0 4.9 4.9 5.2 5.1 5.3 5.6 5.8 5.9 6.0 6.0 6.1 6.2 6.2 6.3 6.2 6.1 6.2
7.2 7.3 7.7 7.7 7.2 6.8 6.6 6.5 6.4 6.4 6.8 6.4 6.0 5.5 5.2 5.3 5.0 4.9 5.3 5.2 5.3 5.5 5.5 5.4 5.6 5.5 5.5 5.4 5.2 5.0 5.0 5.0 4.8 4.8 5.1 5.5 5.6 5.8 5.9 6.0 6.1 6.1 6.1 6.3 6.1 6.1 6.1 6.0 6.0
7.2 7.6 8.0 7.7 7.6 7.3 7.3 7.1 7.0 6.7 7.2 6.9 6.4 5.6 5.8 5.3 5.3 5.1 5.3 5.3 5.3 5.6 5.7 5.5 5.5 5.5 5.4 5.4 5.3 5.2 5.0 5.0 5.0 5.2 5.5 5.6 5.7 6.0 6.0 6.1 6.1 6.1 6.2 6.2 6.2 6.2 6.2 6.1 6.0
7.5 7.9 7.9 7.9 7.7 7.2 7.4 8.1 7.7 7.2 7.5 7.4 7.0 6.4 5.7 5.8 5.6 5.1 5.5 5.5 5.4 5.4 5.7 5.6 5.7 5.6 5.5 5.5 5.3 5.4 5.4 5.4 5.5 5.6 5.6 5.8 5.8 5.9 6.0 6.1 6.1 6.0 6.1 6.2 6.3 6.4 6.2 5.6 6.2
7.9 8.1 7.6 7.8 7.8 9.1 7.8 9.0 8.6 8.0 7.5 8.1 7.8 7.4 6.2 5.7 5.7 5.7 5.4 5.7 5.8 5.3 5.4 5.6 5.7 5.6 5.6 5.6 5.5 5.3 5.4 5.4 5.4 5.6 5.7 5.8 5.8 5.8 6.0 6.1 6.0 6.1 6.0 6.0 6.1 6.3 6.2 6.2 6.0
7.8 7.1 7.6 7.8 8.0 8.4 8.9 8.5 9.2 8.8 8.4 7.9 8.2 7.8 6.8 5.7 5.9 5.9 6.0 6.1 5.8 5.5 5.5 5.4 5.6 5.7 5.5 5.5 5.5 5.5 5.3 5.4 5.5 5.7 5.8 5.8 5.7 5.8 5.9 6.0 5.9 5.9 5.8 5.9 6.0 6.2 6.2 6.0 6.0
7.2 7.4 7.7 7.8 8.3 9.1 9.6 8.7 9.5 9.4 8.7 8.5 7.9 8.1 7.6 6.4 6.3 6.8 6.2 6.0 5.9 5.7 5.4 5.4 5.6 5.9 5.7 5.6 5.5 5.6 5.5 5.4 5.5 5.6 5.7 5.7 5.7 5.7 5.8 5.7 5.6 5.5 5.7 5.7 5.7 5.9 5.9 5.8 5.9
7.4 8.3 9.4 9.6 9.7 9.9 8.9 8.5 8.8 9.0 8.8 8.5 8.1 7.8 8.0 7.3 6.7 6.7 6.6 6.4 6.3 6.3 5.7 5.7 5.7 6.1 6.0 5.8 5.6 5.3 5.5 5.6 5.5 5.5 5.5 5.4 5.7 5.6 5.6 5.5 5.5 5.6 5.6 5.5 5.4 5.7 5.9 5.9 5.8
8.0 8.4 9.7 9.5 9.8 9.9 8.7 8.7 9.4 8.9 8.8 8.4 8.2 8.2 8.2 8.0 7.8 7.3 6.9 6.8 6.6 6.5 5.9 5.8 6.2 5.9 6.1 5.8 5.4 5.5 5.3 5.5 5.5 5.5 5.4 5.6 5.6 5.3 5.3 5.4 5.5 5.5 5.5 5.4 5.6 5.7 5.8 5.8 5.8
8.2 8.0 9.0 9.6 9.7 9.3 9.6 9.6 9.1 9.2 9.1 8.8 8.3 8.4 8.4 8.3 7.9 7.6 7.2 7.0 6.7 6.4 6.4 6.5 6.1 5.9 6.0 5.5 5.5 5.4 5.2 5.3 5.3 5.4 5.3 5.4 5.6 5.1 5.6 5.6 5.6 5.5 5.7 5.7 5.9 5.8 5.9 5.7 5.9
7.7 8.9 9.1 9.3 9.7 9.6 9.8 9.5 9.3 9.4 9.3 8.9 8.7 8.3 8.4 8.3 8.0 7.6 7.2 7.3 6.9 6.5 6.4 6.3 6.2 6.1 6.0 5.8 6.0 5.5 5.5 5.3 5.3 5.2 5.4 5.5 5.5 5.5 5.3 5.6 5.5 5.6 5.7 5.8 5.8 5.8 5.8 5.8 5.7
8.1 8.1 8.6 9.2 9.4 9.9 9.9 9.8 9.4 9.2 9.1 9.0 8.5 8.4 8.2 8.2 7.8 7.4 7.0 6.6 6.6 6.4 6.3 6.3 6.1 6.0 6.0 6.0 5.8 5.8 5.6 5.3 5.4 5.5 5.4 5.4 5.5 5.6 5.7 5.8 5.7 5.8 5.8 6.0 6.1 6.0 5.9 5.9 5.9
8.8 9.4 9.5 9.5 9.7 9.2 9.1 9.4 9.7 9.1 9.0 8.9 8.6 8.1 8.2 8.3 7.9 7.3 6.9 6.5 6.4 6.5 6.3 6.2 6.1 6.0 6.0 5.9 5.7 5.8 5.7 5.5 5.4 5.8 5.6 5.4 5.4 5.4 5.6 5.6 5.8 5.8 5.9 5.9 6.0 6.1 6.1 5.9 5.8
Wind_Speed
10 5 2 4 4 5 6 5 6 8 5 2 8 2 5 7 8 3 13 7 17 11 15 15 14 12 13 13 14 13 11 11 11 13 13 13 12 12 13 13 14 13 13 13 12 13 13 13 13
4 2 4 2 4 6 5 2 6 5 6 9 8 2 1 6 8 9 12 14 15 14 14 13 12 11 10 11 12 12 11 10 10 11 11 13 13 13 13 13 14 13 12 12 12 12 12 12 12
4 4 4 4 4 4 6 8 9 9 7 7 4 4 3 5 4 11 16 14 15 15 15 13 13 11 9 11 11 10 11 10 11 10 10 11 13 12 13 13 14 13 12 12 11 11 10 9 8
3 4 4 5 3 4 8 8 8 9 7 3 2 6 7 7 8 7 17 17 15 13 13 15 12 10 10 11 9 10 10 9 10 11 10 11 13 12 13 13 13 11 11 10 9 8 7 5 4
3 3 3 4 4 6 6 5 3 5 3 5 1 5 6 5 9 15 16 15 16 16 15 15 12 10 8 8 8 8 8 10 10 11 12 13 13 13 13 13 12 11 9 8 8 6 6 4 6
3 3 4 6 4 5 5 3 5 3 4 5 4 6 7 9 14 16 15 14 13 12 17 13 12 10 7 9 11 9 7 8 8 9 11 14 14 14 13 12 12 10 8 7 6 5 5 6 9
5 2 1 3 7 5 3 4 6 3 4 7 5 2 8 10 14 15 14 12 11 11 12 13 11 9 10 11 11 8 6 7 9 11 13 12 14 13 13 11 10 9 8 6 6 5 3 5 6
3 2 5 3 1 3 5 7 5 4 5 10 1 4 12 15 15 14 13 12 10 11 12 11 11 13 12 12 10 8 5 8 10 13 15 13 13 12 12 12 9 8 8 6 5 3 3 3 5
1 0 2 3 2 2 5 5 1 4 9 3 3 2 15 19 16 15 13 14 10 9 10 8 7 10 11 10 10 5 6 10 11 12 14 13 11 13 13 13 8 8 8 6 4 2 0 2 4
3 4 6 4 1 6 6 7 7 4 9 6 9 13 17 18 15 15 14 13 13 12 11 9 9 12 11 11 10 9 8 12 10 11 11 10 10 7 10 11 8 7 6 5 2 2 5 8 4
2 5 5 6 1 5 6 5 3 7 8 6 13 16 17 17 14 13 12 12 13 12 10 9 7 11 11 9 10 11 9 11 10 10 13 9 10 11 9 10 9 9 6 5 8 7 5 3 3
1 5 4 3 5 5 6 5 7 3 2 2 14 16 15 15 13 11 11 11 11 11 9 9 10 8 8 9 6 8 8 9 7 8 9 9 7 8 5 5 6 5 5 3 4 3 2 1 1
3 3 3 2 5 5 6 5 3 10 2 9 13 15 14 12 12 10 9 9 8 10 11 11 8 8 9 9 8 3 8 8 9 12 9 8 9 5 7 5 5 3 4 3 3 3 3 2 2
3 1 2 2 3 4 8 6 4 10 5 9 12 14 13 13 12 10 9 9 10 10 10 10 9 9 11 7 9 6 5 8 7 7 8 3 6 7 8 7 6 3 2 2 2 2 2 3 1
4 1 3 4 4 2 6 9 9 4 11 11 14 13 13 12 11 11 10 10 10 9 10 10 10 11 9 9 10 5 6 5 3 5 4 5 5 7 6 6 4 3 2 2 3 4 3 3 3
4 4 5 6 4 2 6 3 9 8 9 12 14 13 14 13 13 11 10 9 10 9 10 10 8 10 11 10 7 7 7 4 4 5 4 5 5 7 7 6 4 3 1 1 1 2 1 1 3
5 7 5 3 5 3 8 4 2 9 11 12 14 12 14 13 13 12 11 10 11 10 10 11 9 10 11 11 10 7 6 5 5 3 6 6 5 6 5 5 4 2 2 1 2 2 2 3 2
3 6 5 7 2 8 9 11 5 9 12 12 13 15 15 15 16 14 13 12 11 12 11 10 10 10 10 8 9 9 9 11 8 7 10 10 8 5 5 5 3 4 3 2 1 2 3 2 2
9 10 11 7 2 6 8 10 9 10 14 15 16 13 16 17 16 14 14 13 12 12 13 12 12 12 10 9 9 8 9 8 8 11 8 8 6 6 6 6 5 5 3 2 2 3 2 3 1
11 11 10 3 1 7 8 12 10 13 16 17 18 17 17 16 17 16 15 14 15 14 14 14 14 14 12 9 8 7 8 8 7 9 9 9 8 8 7 6 5 4 3 3 3 4 3 1 1
14 13 9 11 5 10 10 14 4 11 15 16 18 19 19 20 19 17 15 15 15 15 16 16 15 15 14 12 8 6 6 5 7 7 8 9 10 10 10 8 5 5 5 5 5 5 4 4 2
15 4 8 10 7 6 2 7 7 3 11 17 19 20 20 19 19 18 17 15 16 16 16 16 15 16 14 14 11 11 9 9 9 9 8 7 11 11 11 10 8 7 6 3 5 5 4 4 5
16 6 9 9 9 9 12 7 2 5 6 13 16 20 21 21 21 20 19 17 16 15 16 16 16 15 15 15 12 10 10 9 8 8 8 7 8 12 11 10 9 7 8 6 5 3 4 3 6
3 8 6 5 8 10 8 5 7 3 5 7 2 14 20 21 22 20 19 17 16 15 16 16 17 16 15 15 15 13 12 10 8 9 8 8 8 9 12 10 9 8 10 7 7 5 5 5 4
12 12 9 8 9 8 5 8 11 14 13 11 7 7 14 20 21 20 20 19 18 18 18 17 18 17 17 16 15 15 14 13 12 9 9 9 9 9 10 10 9 8 10 8 7 6 5 6 7
16 16 11 8 9 9 5 6 6 6 10 10 7 6 11 17 20 20 21 20 19 20 20 18 18 18 14 16 14 14 15 11 11 11 9 8 8 10 10 11 11 12 11 11 10 8 8 8 7
9 11 16 17 15 9 12 9 15 10 6 7 7 7 10 15 19 21 21 19 18 19 20 20 19 18 18 16 14 14 13 14 12 13 12 9 8 7 9 12 12 11 11 11 9 8 8 8 7
15 8 9 11 14 17 10 5 8 8 8 8 4 7 9 12 17 19 20 21 18 17 18 19 19 20 18 16 14 15 16 15 14 12 13 12 11 10 8 11 11 11 10 10 10 9 10 9 8
11 14 14 15 9 11 11 5 2 6 6 8 4 4 7 11 14 17 16 18 18 17 17 17 17 19 17 16 15 16 16 17 15 14 14 14 13 13 11 11 11 12 12 12 11 12 11 11 10
12 15 15 10 8 8 9 11 3 6 7 6 4 4 5 6 12 15 16 16 17 17 16 17 17 18 19 15 7 14 13 11 16 15 16 15 14 13 13 13 12 11 13 12 12 13 11 13 13
Wind_Direction
171 185 227 228 240 226 114 86 100 113 116 95 117 29 27 15 14 40 127 115 129 121 134 134 132 134 128 128 123 117 118 118 118 119 118 112 113 115 112 112 111 108 102 99 98 98 96 95 93
143 211 226 268 239 166 113 106 88 66 95 120 117 123 96 81 62 113 127 147 132 132 139 131 129 127 128 125 126 129 129 132 126 123 124 126 120 122 113 114 111 108 105 101 100 100 98 97 94
201 269 265 293 259 117 126 117 108 109 128 149 125 22 26 61 71 128 113 139 136 137 148 139 138 146 148 134 131 135 138 147 145 144 140 130 126 120 118 116 114 112 108 105 105 101 96 90 86
265 214 216 258 168 82 105 131 123 108 110 111 119 101 104 48 142 135 137 152 143 141 140 145 144 141 141 138 143 154 154 152 156 156 156 142 127 129 120 116 113 113 111 114 110 102 95 79 62
223 245 253 200 119 110 145 204 149 137 80 112 304 98 92 92 125 134 149 158 155 147 158 147 146 139 138 131 132 130 142 140 156 161 162 141 136 124 125 119 117 111 119 118 109 98 72 42 22
245 295 245 189 139 129 127 174 167 103 97 114 108 116 85 122 139 145 150 156 158 149 139 142 145 143 137 126 120 115 132 135 141 151 155 142 135 132 125 121 117 121 125 119 102 79 50 27 23
321 311 11 181 178 146 132 189 211 157 133 89 120 102 114 139 135 143 153 150 152 137 121 136 145 131 125 128 126 100 114 121 139 150 139 143 133 128 127 120 120 124 126 116 93 69 28 30 37
301 282 130 9 225 128 151 180 154 234 83 114 3 118 157 140 148 143 148 140 149 155 152 161 150 153 144 144 130 119 129 130 137 135 140 133 127 130 127 131 123 127 121 106 83 51 37 57 72
237 248 98 140 207 156 147 168 144 204 136 94 57 87 125 143 153 154 148 148 166 155 152 153 143 135 142 149 153 135 140 131 140 136 126 132 146 145 163 86 120 119 112 93 79 80 314 202 185
286 3 27 22 208 166 173 166 170 184 149 125 107 108 130 149 161 163 166 166 166 166 157 156 157 149 171 153 156 149 156 153 148 130 133 166 148 105 119 116 127 117 109 108 138 192 230 235 342
46 15 359 31 188 200 175 181 204 191 171 107 141 142 149 156 168 171 176 178 176 171 156 157 162 160 166 152 174 155 154 155 143 148 157 164 142 155 169 140 158 148 178 186 191 195 235 31 5
320 36 8 52 146 161 169 144 205 100 314 96 137 150 155 164 168 167 169 166 167 166 168 170 163 173 159 165 157 155 155 145 145 161 155 145 153 165 151 155 129 159 149 146 248 185 6 292 139
333 51 46 100 154 197 147 194 196 150 32 137 140 154 163 168 161 163 157 153 161 171 165 174 166 165 174 152 146 144 151 159 165 174 157 169 142 158 165 146 171 128 145 200 222 225 220 241 257
9 94 133 174 166 201 230 207 243 159 184 158 163 163 164 167 167 159 168 162 169 169 168 161 176 168 168 165 153 154 140 149 220 136 138 169 163 171 150 168 158 157 111 283 231 221 223 246 217
150 252 250 200 185 226 238 217 219 141 184 187 181 181 173 173 174 173 169 169 173 173 162 164 182 176 172 161 154 149 157 132 103 140 159 149 202 172 159 164 162 124 94 256 209 215 204 245 205
248 255 295 121 220 131 232 344 178 173 195 186 210 190 186 188 186 178 169 174 162 172 166 172 182 173 167 163 144 175 156 159 117 156 159 159 181 179 203 172 159 108 214 176 242 277 203 192 190
199 299 332 349 217 261 225 306 125 182 200 204 197 196 193 194 197 183 180 181 166 173 172 177 174 181 172 152 159 171 172 179 156 215 168 190 192 188 213 182 144 208 237 215 283 99 332 149 145
90 292 307 337 70 228 245 253 210 207 217 214 201 205 200 199 203 193 192 184 179 169 174 180 175 169 179 165 180 178 187 189 167 199 187 201 188 195 213 179 174 235 234 217 46 338 63 24 5
304 286 296 325 51 261 257 267 255 208 216 218 201 226 205 206 205 198 191 190 184 178 174 178 180 169 182 184 188 190 196 188 196 195 188 194 204 193 201 212 188 229 248 313 230 236 178 142 98
262 270 284 50 90 260 291 274 258 223 223 220 213 215 217 205 205 198 194 194 194 185 181 179 183 176 184 187 201 204 209 201 206 206 196 209 213 195 204 220 202 206 215 227 238 246 260 220 201
245 260 297 310 322 253 283 267 230 217 219 223 225 213 213 213 200 197 199 198 196 192 187 183 182 180 185 188 191 194 203 223 202 208 204 208 215 206 214 202 231 201 250 212 216 213 256 270 200
258 267 307 285 278 299 272 303 289 206 212 220 225 219 216 212 208 200 195 198 197 196 188 181 183 183 185 187 191 201 206 208 203 201 203 201 209 205 194 202 207 219 232 246 218 212 271 264 268
248 352 293 290 255 274 213 259 287 214 254 229 224 224 215 208 204 200 197 193 198 189 184 181 181 185 184 186 205 195 221 207 194 202 194 220 190 202 200 197 206 220 228 206 252 189 236 244 294
247 216 232 240 259 257 254 271 287 205 270 330 262 213 214 207 201 199 198 191 190 185 185 181 179 184 188 188 199 210 204 233 216 206 200 202 194 192 203 200 207 220 213 208 214 214 208 259 281
206 225 241 225 212 259 75 288 276 289 293 312 285 214 210 199 202 199 192 189 186 182 185 183 183 186 188 192 194 205 216 215 231 240 220 224 197 200 188 202 201 195 205 213 227 220 263 224 249
211 238 254 267 282 313 143 269 277 298 286 276 285 264 196 200 193 195 191 193 188 184 184 185 185 188 184 192 199 203 210 223 219 227 236 216 229 203 203 201 206 210 207 214 217 228 235 230 235
183 229 252 282 276 258 272 288 286 256 268 270 265 201 197 197 198 190 188 191 189 190 186 185 186 189 189 191 193 206 211 222 222 231 210 228 242 240 203 208 206 209 211 219 223 236 236 242 232
258 291 228 225 260 271 269 276 269 294 327 337 283 203 183 190 196 195 192 192 185 191 190 192 187 192 188 186 192 209 212 216 220 222 227 234 234 233 251 209 215 211 215 221 217 236 222 239 240
196 231 238 275 282 287 277 263 119 277 335 313 286 180 170 178 186 191 192 190 188 188 186 195 191 199 198 197 205 213 210 214 214 219 221 227 230 230 230 226 226 231 225 221 220 231 254 227 230
271 224 216 239 232 242 292 292 261 270 308 297 243 167 144 168 175 181 181 188 183 191 188 196 195 203 209 201 199 217 217 219 212 217 219 222 225 229 229 232 234 226 234 235 241 243 228 237 239